ANA820 RPLL-RJAA

Flight info

Callsign ANA820
Flight time N/A
Altitude 39000
Route RPLL/06 N0487F390 CAB2R CAB R597 VIGOR M501 LIMLE DCT KEITH A339 YOSHI Y85 MOE Y81 RUTAS RUTASN RJAA/16R
Aircraft B77W/H-SIL/0000

Departure

Time 2026-05-08 06:17
Airport Ninoy Aquino International Airport (RPLL)

Arrival

Time N/A
Airport Narita International Airport (RJAA)
Time Latitude Longitude Altitude Speed Heading
2026-05-08 05:46 14.51840 121.01311 88 ft 0 kts 46°
2026-05-08 05:56 14.51840 121.01310 87 ft 0 kts 46°
2026-05-08 05:57 14.51840 121.01311 87 ft 0 kts 46°
2026-05-08 05:58 14.51840 121.01310 87 ft 0 kts 46°
2026-05-08 06:01 14.51836 121.01305 87 ft 2 kts 46°
2026-05-08 06:01 14.51825 121.01295 87 ft 2 kts 46°
2026-05-08 06:02 14.51815 121.01283 87 ft 2 kts 46°
2026-05-08 06:02 14.51806 121.01271 87 ft 2 kts 68°
2026-05-08 06:02 14.51802 121.01256 87 ft 2 kts 86°
2026-05-08 06:02 14.51803 121.01241 87 ft 2 kts 104°
2026-05-08 06:03 14.51809 121.01226 87 ft 2 kts 122°
2026-05-08 06:03 14.51815 121.01218 87 ft 0 kts 135°
2026-05-08 06:03 14.51818 121.01215 87 ft 0 kts 136°
2026-05-08 06:05 14.51811 121.01221 87 ft 5 kts 136°
2026-05-08 06:06 14.51775 121.01258 87 ft 7 kts 134°
2026-05-08 06:06 14.51743 121.01292 87 ft 5 kts 134°
2026-05-08 06:06 14.51713 121.01314 87 ft 4 kts 155°
2026-05-08 06:06 14.51669 121.01314 87 ft 10 kts 191°
2026-05-08 06:07 14.51590 121.01348 87 ft 15 kts 139°
2026-05-08 06:07 14.51517 121.01421 87 ft 13 kts 134°
2026-05-08 06:07 14.51456 121.01484 87 ft 11 kts 135°
2026-05-08 06:07 14.51404 121.01538 87 ft 9 kts 134°
2026-05-08 06:08 14.51342 121.01604 87 ft 17 kts 134°
2026-05-08 06:08 14.51246 121.01703 87 ft 19 kts 136°
2026-05-08 06:08 14.51157 121.01793 87 ft 17 kts 134°
2026-05-08 06:08 14.51087 121.01865 87 ft 8 kts 134°
2026-05-08 06:09 14.51043 121.01907 87 ft 7 kts 153°
2026-05-08 06:09 14.51008 121.01905 87 ft 4 kts 214°
2026-05-08 06:09 14.50970 121.01859 87 ft 11 kts 240°
2026-05-08 06:09 14.50932 121.01791 87 ft 9 kts 240°
2026-05-08 06:10 14.50890 121.01715 87 ft 17 kts 240°
2026-05-08 06:10 14.50812 121.01576 87 ft 28 kts 240°
2026-05-08 06:10 14.50696 121.01369 87 ft 37 kts 241°
2026-05-08 06:10 14.50578 121.01158 87 ft 23 kts 239°
2026-05-08 06:11 14.50503 121.01021 87 ft 22 kts 240°
2026-05-08 06:11 14.50422 121.00874 87 ft 22 kts 240°
2026-05-08 06:11 14.50347 121.00740 87 ft 20 kts 239°
2026-05-08 06:11 14.50282 121.00623 87 ft 17 kts 242°
2026-05-08 06:12 14.50208 121.00487 87 ft 26 kts 240°
2026-05-08 06:12 14.50107 121.00307 87 ft 28 kts 239°
2026-05-08 06:12 14.50011 121.00134 87 ft 25 kts 240°
2026-05-08 06:12 14.49948 121.00023 87 ft 12 kts 242°
2026-05-08 06:13 14.49906 120.99975 87 ft 0 kts 196°
2026-05-08 06:13 14.49905 120.99974 87 ft 0 kts 196°
2026-05-08 06:13 14.49903 120.99973 87 ft 2 kts 195°
2026-05-08 06:13 14.49864 120.99976 87 ft 6 kts 169°
2026-05-08 06:14 14.49819 121.00000 88 ft 9 kts 138°
2026-05-08 06:14 14.49813 121.00070 88 ft 3 kts 58°
2026-05-08 06:14 14.49815 121.00073 88 ft 0 kts 59°
2026-05-08 06:16 14.49830 121.00099 88 ft 18 kts 60°
2026-05-08 06:16 14.50042 121.00478 87 ft 102 kts 59°
2026-05-08 06:16 14.50534 121.01364 102 ft 175 kts 62°
2026-05-08 06:17 14.51793 121.03573 2114 ft 160 kts 60°
2026-05-08 06:17 14.52414 121.04587 2480 ft 175 kts 60°
2026-05-08 06:17 14.53089 121.05703 2802 ft 194 kts 60°
2026-05-08 06:18 14.53821 121.06929 3062 ft 211 kts 60°
2026-05-08 06:18 14.54629 121.08302 3506 ft 230 kts 60°
2026-05-08 06:18 14.55502 121.09759 3990 ft 248 kts 54°
2026-05-08 06:18 14.56818 121.10899 4501 ft 266 kts 26°
2026-05-08 06:19 14.58661 121.11257 5317 ft 274 kts 357°
2026-05-08 06:19 14.60494 121.10672 6204 ft 280 kts 330°
2026-05-08 06:19 14.61943 121.09381 6994 ft 286 kts 317°
2026-05-08 06:19 14.63549 121.08207 7754 ft 285 kts 341°
2026-05-08 06:20 14.65482 121.07786 8516 ft 285 kts 358°
2026-05-08 06:20 14.67456 121.07658 9394 ft 285 kts 359°
2026-05-08 06:20 14.69454 121.07549 10183 ft 288 kts 359°
2026-05-08 06:20 14.71513 121.07424 10668 ft 305 kts 358°
2026-05-08 06:21 14.73711 121.07285 11106 ft 323 kts 358°
2026-05-08 06:21 14.76039 121.07134 11544 ft 341 kts 358°
2026-05-08 06:21 14.78454 121.06977 11966 ft 358 kts 358°
2026-05-08 06:21 14.81000 121.06812 12364 ft 375 kts 358°
2026-05-08 06:22 14.83682 121.06638 12813 ft 390 kts 358°
2026-05-08 06:22 14.86455 121.06458 13393 ft 401 kts 358°
2026-05-08 06:22 14.89228 121.06277 14194 ft 403 kts 358°
2026-05-08 06:22 14.92049 121.06093 15048 ft 405 kts 358°
2026-05-08 06:23 14.94898 121.05907 15747 ft 410 kts 358°
2026-05-08 06:23 14.97744 121.05723 16405 ft 416 kts 358°
2026-05-08 06:23 15.00670 121.05532 17099 ft 420 kts 358°
2026-05-08 06:23 15.03621 121.05340 17751 ft 425 kts 358°
2026-05-08 06:24 15.06576 121.05148 18386 ft 430 kts 358°
2026-05-08 06:24 15.09608 121.04951 19005 ft 435 kts 357°
2026-05-08 06:24 15.12547 121.04759 19581 ft 440 kts 357°
2026-05-08 06:24 15.15546 121.04564 19830 ft 445 kts 357°
2026-05-08 06:25 15.18667 121.04360 19850 ft 444 kts 357°
2026-05-08 06:25 15.21746 121.04160 19868 ft 444 kts 357°
2026-05-08 06:25 15.24881 121.03955 20155 ft 453 kts 357°
2026-05-08 06:25 15.28039 121.03749 20958 ft 452 kts 357°
2026-05-08 06:26 15.31179 121.03544 21766 ft 451 kts 356°
2026-05-08 06:26 15.34336 121.03338 22324 ft 456 kts 356°
2026-05-08 06:26 15.37503 121.03283 22794 ft 461 kts
2026-05-08 06:26 15.40720 121.03716 23377 ft 465 kts 12°
2026-05-08 06:27 15.43817 121.04633 23950 ft 467 kts 20°
2026-05-08 06:27 15.46778 121.06031 24518 ft 470 kts 29°
2026-05-08 06:27 15.49532 121.07893 25072 ft 473 kts 38°
2026-05-08 06:27 15.51992 121.10175 25607 ft 476 kts 46°
2026-05-08 06:28 15.54111 121.12848 26144 ft 479 kts 55°
2026-05-08 06:28 15.55859 121.15755 26665 ft 483 kts 59°
2026-05-08 06:28 15.57555 121.18768 27186 ft 486 kts 59°
2026-05-08 06:28 15.59258 121.21800 27699 ft 489 kts 59°
2026-05-08 06:29 15.60994 121.24885 28200 ft 492 kts 59°
2026-05-08 06:29 15.62713 121.27934 28689 ft 495 kts 59°
2026-05-08 06:29 15.64468 121.31046 29155 ft 499 kts 58°
2026-05-08 06:29 15.66207 121.34128 29665 ft 501 kts 58°
2026-05-08 06:30 15.67964 121.37241 30306 ft 500 kts 59°
2026-05-08 06:30 15.69715 121.40344 30977 ft 498 kts 58°
2026-05-08 06:30 15.71473 121.43459 31588 ft 498 kts 58°
2026-05-08 06:30 15.73208 121.46532 32128 ft 498 kts 58°
2026-05-08 06:31 15.74952 121.49623 32649 ft 498 kts 58°
2026-05-08 06:31 15.76695 121.52713 33253 ft 497 kts 58°
2026-05-08 06:31 15.78441 121.55810 33927 ft 494 kts 58°
2026-05-08 06:31 15.80166 121.58870 34634 ft 491 kts 59°
2026-05-08 06:32 15.81889 121.61929 35268 ft 488 kts 59°
2026-05-08 06:32 15.83600 121.64967 35780 ft 486 kts 58°
2026-05-08 06:32 15.85349 121.68072 36139 ft 486 kts 59°
2026-05-08 06:32 15.87058 121.71107 36391 ft 487 kts 59°
2026-05-08 06:33 15.88796 121.74197 36653 ft 488 kts 59°
2026-05-08 06:33 15.90519 121.77261 36981 ft 487 kts 59°
2026-05-08 06:33 15.92236 121.80316 37329 ft 485 kts 59°
2026-05-08 06:33 15.93989 121.83436 37628 ft 484 kts 59°
2026-05-08 06:34 15.95684 121.86453 37863 ft 484 kts 59°
2026-05-08 06:34 15.97400 121.89508 38045 ft 484 kts 59°
2026-05-08 06:34 15.99106 121.92548 38224 ft 485 kts 59°
2026-05-08 06:34 16.00808 121.95583 38422 ft 485 kts 59°
2026-05-08 06:35 16.02507 121.98614 38651 ft 484 kts 59°
2026-05-08 06:35 16.04226 122.01679 38852 ft 483 kts 59°
2026-05-08 06:35 16.07630 122.07756 38870 ft 484 kts 59°
2026-05-08 06:36 16.11018 122.13810 38870 ft 482 kts 59°
2026-05-08 06:36 16.14399 122.19858 38868 ft 481 kts 59°
2026-05-08 06:37 16.17777 122.25903 38868 ft 482 kts 59°
2026-05-08 06:37 16.21157 122.31957 38871 ft 484 kts 59°
2026-05-08 06:38 16.24521 122.37988 38867 ft 483 kts 59°
2026-05-08 06:38 16.27899 122.44049 38858 ft 483 kts 59°
2026-05-08 06:39 16.31296 122.50151 38870 ft 484 kts 59°
2026-05-08 06:39 16.34243 122.55447 38870 ft 483 kts 59°
2026-05-08 06:40 16.37647 122.61570 38868 ft 483 kts 59°